FW8288 Weather Reports


Display with metric or nautical units.
time (UTC)temp
F
wind
direction
speed
MPH
gust
MPH
rain 1hr
in
rain 24hr
in
rain mn
in
humidity
%
barometer
mb
20260507010058 77 165 1.0 6.0 0.00 0.00 0.00 78 1010.8
20260507004610 78 165 0.0 5.0 0.00 0.00 0.00 79 1010.5
20260507003116 80 165 3.0 8.0 0.00 0.00 0.00 76 1010.1
20260507001616 83 166 1.0 6.0 0.00 0.00 0.00 80 1009.7
20260506234603 85 166 2.0 5.0 0.00 0.00 0.00 77 1009.6
20260506233100 87 166 0.0 3.0 0.00 0.00 0.00 73 1009.5
20260506231607 87 0 0.0 0.0 0.00 0.00 0.00 72 1009.3
20260506230115 87 0 0.0 3.0 0.00 0.00 0.00 70 1009.1
20260506224559 87 166 1.0 3.0 0.00 0.00 0.00 69 1009.1
20260506223107 88 166 2.0 5.0 0.00 0.00 0.00 70 1009.2
20260506221612 88 0 0.0 3.0 0.00 0.00 0.00 69 1009.1
20260506220058 88 166 1.0 4.0 0.00 0.00 0.00 70 1009.0
20260506214559 89 166 1.0 5.0 0.00 0.00 0.00 68 1008.9
20260506213103 89 166 1.0 5.0 0.00 0.00 0.00 68 1009.1
20260506211559 88 166 2.0 5.0 0.00 0.00 0.00 70 1009.1
20260506210100 88 166 4.0 7.0 0.00 0.00 0.00 68 1009.3
20260506204602 88 166 1.0 4.0 0.00 0.00 0.00 71 1009.3
20260506203122 88 166 1.0 6.0 0.00 0.00 0.00 70 1009.6
20260506201600 87 166 2.0 5.0 0.00 0.00 0.00 72 1009.6
20260506194601 86 165 3.0 6.0 0.00 0.00 0.00 71 1009.8
20260506193106 87 165 1.0 6.0 0.00 0.00 0.00 72 1009.8
20260506191559 87 165 1.0 3.0 0.00 0.00 0.00 73 1010.1
20260506190058 86 165 1.0 6.0 0.00 0.00 0.00 74 1010.3
20260506184600 86 165 1.0 5.0 0.00 0.00 0.00 75 1010.4
20260506183108 85 165 1.0 4.0 0.00 0.00 0.00 77 1010.6
20260506181604 84 165 0.0 3.0 0.00 0.00 0.00 77 1010.8
20260506174604 83 165 0.0 5.0 0.00 0.00 0.00 80 1011.4
20260506173109 83 165 0.0 2.0 0.00 0.00 0.00 80 1011.8
20260506171601 82 165 0.0 3.0 0.00 0.00 0.00 82 1011.7
20260506170109 81 0 1.0 6.0 0.00 0.00 0.00 84 1011.9
20260506164626 80 165 1.0 3.0 0.00 0.00 0.00 87 1011.7
20260506163111 79 0 0.0 0.0 0.00 0.00 0.00 87 1011.9
20260506161601 79 165 1.0 4.0 0.00 0.00 0.00 86 1011.6
20260506160122 79 0 0.0 3.0 0.00 0.00 0.00 86 1011.4
20260506154600 80 165 0.0 2.0 0.00 0.00 0.00 85 1011.4
20260506153058 80 165 0.0 2.0 0.00 0.00 0.00 84 1011.4
20260506151604 80 165 0.0 2.0 0.00 0.00 0.00 85 1011.0
20260506150109 79 0 0.0 3.0 0.00 0.00 0.00 85 1010.8
20260506144605 79 0 0.0 4.0 0.00 0.00 0.00 85 1010.6
20260506143100 79 165 0.0 4.0 0.00 0.00 0.00 88 1010.3
20260506141600 78 165 0.0 3.0 0.00 0.00 0.00 89 1010.4
20260506140059 78 165 1.0 5.0 0.00 0.00 0.00 90 1010.5
20260506134614 77 165 0.0 3.0 0.00 0.00 0.00 92 1010.6
20260506133114 76 0 0.0 1.0 0.00 0.00 0.00 93 1010.5
20260506131615 76 0 0.0 0.0 0.00 0.00 0.00 93 1010.7
20260506124608 75 0 0.0 0.0 0.00 0.00 0.00 94 1010.7
20260506123059 75 0 0.0 0.0 0.00 0.00 0.00 94 1010.6
20260506121601 74 0 0.0 0.0 0.00 0.00 0.00 93 1010.4
20260506120111 74 0 0.0 0.0 0.00 0.00 0.00 93 1010.4
20260506114558 74 0 0.0 0.0 0.00 0.00 0.00 93 1010.2
20260506113057 75 0 0.0 0.0 0.00 0.00 0.00 93 1009.9
20260506111600 75 0 0.0 4.0 0.00 0.00 0.00 93 1009.7
20260506110113 75 0 0.0 2.0 0.00 0.00 0.00 93 1009.6
20260506104613 75 165 0.0 1.0 0.00 0.00 0.00 93 1009.4
20260506103101 75 165 0.0 2.0 0.00 0.00 0.00 92 1009.6
20260506101558 75 165 0.0 2.0 0.00 0.00 0.00 92 1009.5
20260506100113 75 0 0.0 2.0 0.00 0.00 0.00 92 1009.4
20260506094603 75 165 0.0 2.0 0.00 0.00 0.00 91 1009.3
20260506093101 75 0 0.0 2.0 0.00 0.00 0.00 91 1009.2
20260506091607 76 165 0.0 2.0 0.00 0.00 0.00 90 1009.3
20260506090104 76 0 0.0 2.0 0.00 0.00 0.00 90 1009.5
20260506084631 76 0 0.0 1.0 0.00 0.00 0.00 90 1009.5
20260506083058 76 0 0.0 3.0 0.00 0.00 0.00 90 1009.6
20260506081600 76 165 0.0 3.0 0.00 0.00 0.00 89 1009.7
20260506073058 76 0 1.0 5.0 0.00 0.00 0.00 89 1010.0
20260506071600 77 165 1.0 4.0 0.00 0.00 0.00 89 1010.1
20260506061559 77 165 0.0 4.0 0.00 0.00 0.00 88 1010.4
20260506044559 77 165 0.0 1.0 0.00 0.00 0.00 87 1010.4
20260506043103 77 0 0.0 4.0 0.00 0.00 0.00 87 1010.4
20260506041609 77 165 1.0 3.0 0.00 0.00 0.00 87 1010.2
20260506040101 77 0 0.0 2.0 0.00 0.00 0.00 86 1010.3
20260506034600 78 165 0.0 5.0 0.00 0.00 0.00 85 1010.0
20260506033101 78 165 1.0 7.0 0.00 0.00 0.00 85 1009.9
20260506031557 78 166 1.0 4.0 0.00 0.00 0.00 84 1009.7
20260506030059 78 166 1.0 5.0 0.00 0.00 0.00 85 1009.7
20260506024605 78 166 2.0 6.0 0.00 0.00 0.00 84 1009.5
20260506023108 78 166 1.0 5.0 0.00 0.00 0.00 84 1009.4
20260506021622 78 166 1.0 6.0 0.00 0.00 0.00 83 1009.0
20260506020100 79 167 1.0 9.0 0.00 0.00 0.00 82 1008.9
20260506014557 79 167 0.0 6.0 0.00 0.00 0.00 82 1008.6
20260506013109 79 166 1.0 6.0 0.00 0.00 0.00 81 1008.4
20260506011615 79 167 0.0 8.0 0.00 0.00 0.00 80 1008.1